Tampa, FL

3:40 PM EST on February 26, 2017 (GMT -0500)
Tampa International

Weather History for KTPA - May, 2013

Change the Weather History Date:

Saturday, May 25, 2013

  Actual Average Record
Temperature  
Mean Temperature 83 °F 80 °F  
Max Temperature 92 °F 89 °F 96 °F (2012)
Min Temperature 73 °F 72 °F 58 °F (1892)
Degree Days  
Heating Degree Days 0 0  
Month to date heating degree days 0 0  
Since 1 July heating degree days 400 538  
Cooling Degree Days 18 15  
Month to date cooling degree days 302 323  
Year to date cooling degree days 880 783  
Growing Degree Days 32 (Base 50)    
Moisture  
Dew Point 62 °F    
Average Humidity 56    
Maximum Humidity 79    
Minimum Humidity 32    
Precipitation  
Precipitation 0.00 in 0.09 in 2.45 in (1984)
Month to date precipitation 1.85 1.52  
Year to date precipitation 9.12 11.62  
Sea Level Pressure  
Sea Level Pressure 30.13 in    
Wind  
Wind Speed 7 mph (ENE)    
Max Wind Speed 13 mph    
Max Gust Speed 20 mph    
Visibility 10 miles    
Events      
T = Trace of Precipitation, MM = Missing Value Source: NWS Daily Summary

Daily Weather History Graph

Daily Weather History Graph

Search for Another Location

Airport or City:

Trip Planner

Search our weather history database for the weather conditions in past years. The results will help you decide how hot, cold, wet, or windy it might be!

Date:

Astronomy

May. 25, 2013 Rise Set
Actual Time 6:35 AM EDT 8:18 PM EDT
Civil Twilight 6:09 AM EDT 8:44 PM EDT
Nautical Twilight 5:38 AM EDT 9:16 PM EDT
Astronomical Twilight 5:05 AM EDT 9:49 PM EDT
Moon 9:06 PM EDT (5/25) 7:00 AM EDT (5/25)
Length of Visible Light 14h 34m
Length of Day
13h 42m
Full, 100% of the Moon is Illuminated
May 25
Full
May 31
Last Quarter
Jun 8
New
Jun 16
First Quarter
Jun 23
Full

Hourly Weather History & Observations

Time (EDT) Temp. Heat Index Dew Point Humidity Pressure Visibility Wind Dir Wind Speed Gust Speed Precip Events Conditions
12:53 AM 78.1 °F - 66.9 °F 68% 30.09 in 10.0 mi NNW 9.2 mph - N/A   Mostly Cloudy
1:53 AM 77.0 °F - 64.9 °F 66% 30.09 in 10.0 mi NNE 5.8 mph - N/A   Scattered Clouds
2:53 AM 75.9 °F - 64.9 °F 69% 30.09 in 10.0 mi NE 5.8 mph - N/A   Scattered Clouds
3:53 AM 75.9 °F - 64.0 °F 67% 30.08 in 10.0 mi NE 5.8 mph - N/A   Scattered Clouds
4:53 AM 75.0 °F - 64.9 °F 71% 30.08 in 10.0 mi ENE 5.8 mph - N/A   Scattered Clouds
5:53 AM 73.9 °F - 66.0 °F 76% 30.09 in 10.0 mi NE 4.6 mph - N/A   Scattered Clouds
6:53 AM 73.0 °F - 66.0 °F 79% 30.12 in 10.0 mi ENE 5.8 mph - N/A   Partly Cloudy
7:53 AM 75.0 °F - 66.9 °F 76% 30.14 in 10.0 mi ENE 5.8 mph - N/A   Partly Cloudy
8:53 AM 80.1 °F 82.1 °F 66.0 °F 62% 30.16 in 10.0 mi NE 8.1 mph - N/A   Partly Cloudy
9:53 AM 82.9 °F 84.0 °F 63.0 °F 51% 30.17 in 10.0 mi East 8.1 mph - N/A   Partly Cloudy
10:53 AM 84.0 °F 84.0 °F 60.1 °F 44% 30.19 in 10.0 mi ENE 10.4 mph 16.1 mph N/A   Partly Cloudy
11:53 AM 86.0 °F 85.0 °F 57.9 °F 38% 30.19 in 10.0 mi Variable 5.8 mph 16.1 mph N/A   Partly Cloudy
12:53 PM 88.0 °F 86.9 °F 57.9 °F 36% 30.18 in 10.0 mi ENE 8.1 mph - N/A   Scattered Clouds
1:53 PM 89.1 °F 88.0 °F 57.9 °F 35% 30.17 in 10.0 mi ENE 8.1 mph - N/A   Scattered Clouds
2:53 PM 91.0 °F 90.0 °F 57.9 °F 33% 30.15 in 10.0 mi NE 9.2 mph - N/A   Mostly Cloudy
3:53 PM 91.0 °F 89.7 °F 57.0 °F 32% 30.13 in 10.0 mi East 5.8 mph 19.6 mph N/A   Scattered Clouds
4:53 PM 89.1 °F 87.1 °F 55.0 °F 31% 30.11 in 10.0 mi NE 5.8 mph - N/A   Scattered Clouds
5:53 PM 91.0 °F 89.7 °F 57.0 °F 32% 30.10 in 10.0 mi East 8.1 mph - N/A   Scattered Clouds
6:53 PM 88.0 °F 87.1 °F 59.0 °F 37% 30.11 in 10.0 mi ENE 8.1 mph - N/A   Scattered Clouds
7:53 PM 86.0 °F 86.1 °F 61.0 °F 43% 30.12 in 10.0 mi ENE 9.2 mph 16.1 mph N/A   Scattered Clouds
8:53 PM 82.9 °F 83.7 °F 62.1 °F 49% 30.14 in 10.0 mi ENE 9.2 mph 19.6 mph N/A   Scattered Clouds
9:53 PM 81.0 °F 81.9 °F 62.1 °F 52% 30.16 in 10.0 mi East 9.2 mph 17.3 mph N/A   Scattered Clouds
10:53 PM 78.1 °F - 61.0 °F 56% 30.18 in 10.0 mi ENE 10.4 mph 17.3 mph N/A   Scattered Clouds
11:53 PM 75.9 °F - 60.1 °F 58% 30.19 in 10.0 mi ENE 5.8 mph - N/A   Partly Cloudy